Starlink 4345

operational
NORAD ID: 53049 Int'l Des: 2022-077 Owner: SPXS Country: US Constellation: starlink
LEOCIRCULARRETROGRADESSO

Über Starlink 4345

Beschreibung wird geladen...

Live-Position

3D-Globus wird geladen...

Nächste Überflüge

Höhenverlauf

Altitude vs Time

uPlot chart will show altitude changes over time

Zweizeiliger Elementsatz

1 53049U 22077G 25342.44756032 -.00000680 00000-0 -48380-4 0 9999
2 53049 97.6026 160.9011 0002521 62.7226 297.4255 15.01268120187226
Epoch: 8. Dez. 2025 • Age: 15 hours

Aktueller Status

Höhe 565.9 km
Geschwindigkeit 7.58 km/s
Subsatellitenpunkt 33.25°N, 59.16°E
Startdatum 11. Juli 2022
Alter 3.4 years
Typ internet

Technische Details

Klassifizierung Payload
Masse 297.00 kg
Trockenmasse 275.00 kg
Gesamtmasse 297.00 kg
Länge 0.20 m
Durchmesser 2.80 m
Spannweite 9.00 m
Form Box + pan
Hersteller SPXS
Bus-Typ Starlink
Phasenstatus In Orbit
Besitzer/Staat SPXS/US

Große Konstellationen

Loading constellations...